Temperature
1 2 2 2 2 2 3 3 3 3 3 4 4 4 4 4 4 5 5 5 5 5 5 5 5 5 5 5 5 5 4 4 4 4 4 4 4 4 4 4 4 4 4
1 1 1 1 1 2 2 2 3 3 3 3 3 3 3 4 4 4 4 4 4 4 4 4 4 4 4 4 4 4 4 4 4 4 4 3 4 4 4 4 4 4 4
-0 0 0 1 1 1 1 2 2 2 2 2 2 3 3 3 3 3 3 3 4 4 4 4 4 4 4 4 4 4 3 3 3 3 3 3 3 3 3 3 3 3 3
-1 -1 -0 -0 0 0 1 1 1 1 2 2 2 2 2 2 2 3 3 3 3 3 3 3 3 3 3 3 3 3 3 3 3 3 2 2 2 3 2 3 2 3 3
-1 -1 -1 -1 -1 -0 0 0 1 1 1 1 1 2 2 2 2 2 2 2 2 2 2 3 3 3 2 2 2 2 2 2 2 2 2 2 2 2 2 2 2 2 2
-2 -2 -1 -1 -1 -1 -1 -0 0 0 1 1 1 1 1 1 1 1 1 1 2 2 2 2 2 2 2 2 2 2 2 2 2 2 1 1 1 1 1 1 1 1 1
-2 -2 -2 -2 -2 -2 -1 -1 -1 -0 -0 0 0 0 1 1 1 1 1 1 1 1 1 1 1 1 1 1 1 1 1 1 1 1 1 1 1 1 1 1 0 0 0
-3 -3 -3 -2 -2 -2 -2 -2 -2 -1 -1 -1 -0 -0 0 0 0 0 0 0 0 0 1 1 1 1 1 1 1 1 1 1 1 0 0 0 0 0 0 0 0 -0 -0
-3 -3 -3 -3 -3 -3 -2 -2 -2 -2 -1 -1 -1 -1 -1 -1 -0 -0 -0 -0 -0 -0 -0 -0 -0 0 0 0 0 0 0 -0 -0 -0 -0 -0 -0 -0 -0 -0 -0 -1 -1
-4 -4 -4 -4 -3 -3 -3 -3 -3 -2 -2 -2 -2 -2 -1 -1 -1 -1 -1 -1 -1 -1 -1 -1 -1 -1 -1 -1 -1 -1 -1 -1 -1 -1 -1 -1 -1 -1 -1 -1 -1 -1 -1
-4 -4 -4 -4 -4 -4 -4 -3 -3 -3 -3 -3 -2 -2 -2 -2 -2 -2 -2 -2 -2 -2 -2 -2 -2 -2 -1 -1 -1 -1 -1 -1 -1 -1 -1 -1 -1 -1 -1 -1 -2 -2 -2
-5 -5 -5 -5 -4 -4 -4 -4 -4 -4 -4 -3 -3 -3 -3 -3 -3 -3 -3 -3 -2 -2 -2 -2 -2 -2 -2 -2 -2 -2 -2 -2 -2 -2 -2 -2 -2 -2 -2 -2 -2 -2 -2
-5 -5 -5 -5 -5 -5 -5 -4 -4 -4 -4 -4 -4 -4 -4 -4 -4 -4 -3 -3 -3 -3 -3 -3 -3 -3 -3 -3 -3 -3 -3 -3 -3 -3 -3 -3 -3 -3 -3 -3 -3 -3 -3
-6 -6 -6 -6 -6 -6 -5 -5 -5 -5 -5 -5 -5 -5 -5 -4 -4 -4 -4 -4 -4 -4 -4 -4 -4 -3 -3 -3 -3 -3 -3 -3 -3 -3 -3 -3 -3 -3 -3 -3 -3 -4 -4
-6 -6 -6 -6 -6 -6 -6 -6 -6 -6 -6 -5 -5 -5 -5 -5 -5 -5 -4 -4 -4 -4 -4 -4 -4 -4 -4 -4 -4 -4 -4 -4 -4 -4 -4 -4 -4 -4 -4 -4 -4 -4 -4
-7 -7 -7 -7 -7 -7 -6 -6 -6 -6 -6 -6 -6 -6 -6 -6 -5 -5 -5 -5 -5 -5 -5 -5 -5 -5 -5 -5 -5 -4 -4 -4 -4 -4 -5 -5 -5 -5 -5 -5 -5 -5 -5
-8 -8 -8 -7 -7 -7 -7 -7 -7 -7 -7 -6 -6 -6 -6 -6 -6 -6 -6 -6 -5 -6 -5 -5 -5 -5 -5 -5 -5 -5 -5 -5 -5 -5 -5 -5 -5 -6 -6 -6 -6 -6 -6
-9 -8 -8 -8 -8 -8 -7 -7 -7 -7 -7 -7 -7 -7 -7 -7 -6 -6 -6 -6 -6 -6 -6 -6 -6 -6 -6 -6 -6 -6 -6 -6 -6 -6 -6 -6 -6 -6 -6 -6 -6 -6 -6
-9 -9 -9 -9 -8 -8 -8 -8 -8 -8 -8 -8 -7 -7 -7 -7 -7 -7 -7 -7 -7 -7 -7 -7 -7 -7 -7 -7 -7 -7 -7 -7 -7 -7 -7 -7 -7 -7 -7 -7 -7 -7 -7
-10 -10 -9 -9 -9 -9 -9 -9 -9 -8 -8 -8 -8 -8 -8 -7 -7 -7 -7 -7 -7 -7 -7 -7 -7 -7 -7 -7 -7 -7 -7 -7 -7 -7 -7 -7 -7 -7 -7 -7 -7 -7 -7
-10 -10 -10 -10 -10 -9 -9 -9 -9 -9 -9 -9 -9 -8 -8 -8 -8 -8 -8 -8 -8 -8 -8 -8 -8 -8 -8 -8 -8 -8 -8 -8 -8 -8 -8 -8 -8 -8 -8 -8 -8 -8 -8
-11 -10 -10 -10 -10 -10 -10 -10 -10 -9 -9 -9 -9 -9 -9 -9 -9 -9 -9 -9 -9 -9 -9 -9 -9 -8 -8 -8 -8 -8 -8 -8 -8 -8 -8 -8 -8 -8 -8 -8 -8 -8 -8
-11 -11 -11 -11 -11 -11 -10 -10 -10 -10 -10 -10 -10 -10 -10 -9 -9 -9 -9 -9 -9 -9 -9 -9 -9 -9 -9 -9 -9 -9 -9 -9 -9 -9 -9 -9 -9 -9 -9 -9 -9 -9 -9
-12 -12 -11 -11 -11 -11 -11 -11 -11 -10 -10 -10 -10 -10 -10 -10 -10 -10 -10 -10 -10 -9 -9 -9 -9 -9 -9 -9 -9 -9 -9 -9 -9 -9 -9 -9 -9 -9 -9 -9 -9 -9 -9
-12 -12 -12 -12 -12 -11 -11 -11 -11 -11 -11 -11 -11 -11 -11 -11 -10 -10 -10 -10 -10 -10 -10 -10 -10 -9 -9 -9 -9 -9 -9 -9 -9 -9 -9 -9 -9 -9 -9 -9 -9 -9 -9
-12 -12 -12 -12 -12 -12 -12 -12 -12 -12 -11 -11 -11 -11 -11 -11 -11 -11 -11 -10 -10 -10 -10 -10 -10 -10 -10 -10 -10 -10 -10 -9 -9 -9 -9 -9 -10 -10 -10 -10 -10 -10 -10
Wind_Speed
6 4 3 3 3 2 1 1 1 0 1 2 2 1 1 1 1 3 3 4 4 3 3 4 4 3 3 2 2 2 2 2 3 2 1 1 1 1 2 2 2 2 3
6 5 3 2 2 2 2 1 1 0 1 1 2 2 1 1 1 2 3 4 4 4 4 4 4 3 4 3 2 2 2 2 3 3 1 1 1 1 1 1 2 2 2
6 5 4 3 2 2 2 1 1 1 0 1 2 2 1 1 1 2 2 3 4 4 4 4 4 4 3 3 3 3 2 2 2 3 2 1 1 0 1 1 2 2 2
6 5 5 4 3 2 2 1 0 0 0 1 2 2 1 1 1 2 2 2 2 2 3 4 4 5 5 4 3 4 3 3 2 2 2 1 1 0 1 0 1 1 2
6 5 5 5 4 3 2 1 1 0 0 1 1 1 1 1 1 2 2 2 2 2 2 3 3 4 4 4 4 4 4 3 3 2 2 1 1 1 1 1 2 1 2
5 5 5 5 4 3 2 1 1 0 0 0 1 1 1 1 1 1 2 2 2 2 2 2 2 3 4 4 3 3 4 4 4 3 3 3 3 2 2 1 1 1 2
5 6 5 5 5 4 3 2 1 0 1 0 0 1 1 1 1 1 2 2 2 2 2 2 1 2 3 3 3 2 2 2 4 4 4 4 4 3 3 2 2 2 3
5 6 6 5 5 4 3 2 2 1 0 0 0 1 1 1 1 2 2 2 2 2 2 2 2 2 3 4 3 2 1 1 2 2 3 3 3 3 3 4 3 2 2
5 6 6 5 5 4 4 3 2 1 1 1 1 1 1 1 1 2 2 2 2 2 1 1 2 2 2 3 4 3 1 0 1 0 1 1 1 2 1 1 1 1 2
6 6 6 5 5 4 4 3 2 2 2 2 2 2 1 1 1 2 2 2 2 2 2 1 1 1 2 2 3 3 2 1 1 0 1 1 1 1 0 1 2 2 2
6 6 5 5 5 4 3 3 2 2 3 3 3 2 2 2 2 2 2 2 2 2 1 1 1 2 1 1 1 2 3 2 1 1 1 0 1 1 1 1 0 2 2
5 5 5 5 5 4 3 3 3 2 2 2 3 3 2 2 3 3 3 3 2 2 1 1 1 2 2 2 1 2 2 1 1 1 1 0 0 1 1 1 1 1 1
5 5 4 5 4 4 3 3 3 2 2 2 2 2 2 2 2 3 3 3 3 2 1 2 2 3 3 2 3 3 1 1 1 1 1 1 1 1 1 1 2 2 2
4 4 4 4 4 4 3 3 2 2 2 2 1 1 2 2 2 2 1 1 2 2 2 2 3 4 3 3 2 2 1 1 1 1 1 1 1 1 1 1 1 2 2
4 4 4 4 3 3 3 3 3 2 2 2 1 1 1 2 3 3 2 1 0 1 1 2 2 2 2 1 2 2 2 1 1 1 0 0 0 1 1 1 1 1 1
4 4 3 3 3 3 3 3 5 5 5 5 4 3 2 3 3 3 2 2 1 1 1 1 1 1 1 1 1 1 1 1 1 1 0 1 1 1 1 1 1 1 2
3 4 3 3 3 3 2 2 3 4 5 6 6 6 4 4 3 3 2 2 2 2 1 1 1 0 0 0 0 1 1 1 1 1 1 1 1 2 2 2 2 2 2
4 4 4 3 3 3 3 2 2 2 3 3 5 6 6 5 4 3 2 2 2 2 1 0 0 0 0 0 0 1 1 1 1 1 1 1 2 2 2 2 3 3 3
4 3 3 3 3 3 3 2 2 2 2 2 3 4 6 5 5 4 4 2 1 1 1 1 1 1 1 1 1 1 1 2 2 2 2 2 2 2 3 3 3 5 4
3 6 5 3 2 2 2 2 2 2 2 2 2 3 3 3 2 3 3 2 1 1 1 1 1 2 1 1 1 2 2 2 2 2 2 2 3 3 3 4 4 4 4
3 4 6 3 2 3 3 2 2 2 2 2 2 3 4 2 2 2 2 2 2 1 2 2 2 2 2 2 2 2 3 3 3 3 3 3 3 3 4 4 4 4 4
3 3 3 3 2 3 3 2 2 2 2 2 2 3 4 2 2 2 2 2 2 2 2 2 2 2 2 2 3 3 3 4 4 4 4 4 4 4 4 4 4 4 4
3 3 3 3 3 4 3 2 2 2 2 2 2 2 2 2 2 2 2 2 2 2 2 2 2 3 3 4 4 4 4 4 5 5 4 4 4 4 4 4 5 5 5
2 3 3 3 3 2 3 3 2 2 2 2 2 2 2 2 2 3 2 2 3 2 3 3 3 4 5 5 5 6 6 7 7 6 7 6 5 5 4 5 5 6 6
2 2 2 2 3 3 3 3 2 2 2 2 2 2 2 2 2 3 3 3 3 3 4 4 4 5 6 7 7 8 9 9 9 7 7 6 6 6 6 6 6 5 6
2 2 2 2 2 3 3 3 3 3 2 3 3 3 3 3 3 3 3 3 3 4 4 5 6 7 8 8 9 10 10 10 10 9 7 6 5 5 6 5 6 6 6
Wind_Direction
333 318 316 312 318 321 298 261 232 212 196 177 172 167 165 176 176 175 188 178 179 188 186 182 187 175 176 179 171 177 179 169 215 249 229 286 265 271 302 290 278 267 266
330 323 322 326 331 340 333 330 30 87 152 177 160 153 156 166 173 183 187 182 178 184 185 179 185 175 177 180 177 185 194 186 188 215 238 242 237 253 290 294 300 287 272
337 332 327 332 334 330 325 331 11 30 55 146 145 155 160 161 169 182 181 182 183 185 181 179 183 171 182 184 180 186 190 188 174 185 223 237 251 315 7 323 327 312 301
339 335 334 330 319 313 319 311 296 22 201 184 161 159 158 141 145 166 166 162 168 173 176 181 183 182 189 186 187 187 180 176 173 177 200 225 247 273 156 238 311 317 306
338 338 333 329 321 327 336 307 275 182 260 210 168 152 136 143 144 152 160 163 161 165 171 176 179 177 186 186 185 184 178 181 181 186 202 218 228 219 226 221 244 288 294
336 337 338 337 334 335 335 326 340 5 329 209 178 164 156 165 144 138 159 158 152 162 173 176 168 167 169 173 173 177 180 185 192 202 218 217 228 234 227 232 234 258 276
339 341 342 344 340 336 338 355 6 342 33 60 151 158 170 164 134 122 103 118 139 157 161 164 173 172 170 167 162 156 171 192 201 204 207 228 231 227 217 234 243 254 254
341 342 341 344 339 337 347 356 348 347 40 62 49 111 124 100 97 95 80 93 110 124 138 151 171 174 177 161 151 150 155 205 218 208 203 223 231 233 219 223 227 244 267
339 336 335 336 334 339 344 344 349 8 27 36 74 86 78 50 59 83 99 126 110 101 111 130 142 151 163 155 148 147 141 312 8 182 236 255 263 266 232 168 193 225 267
327 326 328 330 333 336 336 342 359 17 22 28 34 51 60 48 31 52 71 112 112 103 87 88 102 130 156 149 160 162 172 206 160 80 23 350 7 343 298 222 214 227 254
322 328 331 334 335 337 349 354 10 24 37 39 34 34 41 31 29 42 53 81 111 109 105 92 91 92 90 95 158 183 187 186 168 159 168 248 20 28 13 7 350 223 238
329 330 332 338 341 346 0 2 11 30 44 40 33 26 28 18 23 37 42 43 56 89 86 70 83 87 87 67 57 116 132 127 133 135 149 199 249 286 304 350 4 342 270
333 332 334 339 345 349 357 0 4 14 23 19 20 10 12 10 9 18 27 36 38 49 79 78 61 62 61 54 65 75 78 106 132 159 204 243 260 267 311 343 6 14 3
327 328 333 339 346 354 354 354 355 352 354 351 352 342 344 348 354 353 1 16 48 56 62 72 64 58 51 44 45 43 46 73 149 190 214 244 291 318 315 309 301 310 313
326 327 334 337 338 343 348 349 344 337 325 322 307 306 305 314 323 335 341 354 75 114 95 60 58 64 57 52 40 35 36 40 35 29 162 210 248 287 307 307 288 299 286
330 332 331 330 332 336 339 347 354 352 353 353 348 344 332 329 331 336 346 18 38 90 81 97 91 76 67 45 40 24 22 23 11 -0 335 252 246 253 275 294 295 277 277
324 324 326 328 326 326 328 335 340 351 2 4 1 359 354 347 350 1 9 42 57 77 77 104 116 140 156 350 346 344 329 325 326 302 293 303 268 253 256 264 269 274 275
324 323 324 316 315 316 317 318 320 331 342 349 351 358 2 2 7 21 37 48 45 43 48 67 42 276 276 272 281 297 298 302 298 287 272 267 274 263 255 257 257 259 267
323 317 312 311 315 317 322 323 322 327 332 335 343 348 356 2 14 27 33 42 52 13 0 343 322 312 308 298 293 289 280 270 271 274 271 266 263 263 261 257 258 267 267
322 328 330 326 326 327 323 320 322 324 329 328 330 332 339 354 9 11 16 21 20 352 334 318 309 300 294 289 286 282 279 272 269 264 264 264 264 260 262 263 260 258 257
319 323 332 332 327 323 319 319 318 315 315 319 323 327 343 3 1 355 354 355 346 329 317 307 296 293 291 288 278 271 269 269 266 262 260 259 258 261 263 266 266 262 261
316 319 322 318 318 316 317 316 313 314 315 315 322 326 339 1 355 347 337 333 334 324 305 297 293 290 282 275 269 264 263 263 264 260 258 258 257 259 260 260 266 263 260
307 310 320 323 323 325 334 327 317 312 309 311 317 328 335 342 340 335 332 332 331 320 306 291 287 289 285 282 272 260 257 261 261 256 255 257 259 259 257 255 257 263 262
306 307 313 317 321 322 320 318 314 313 313 312 316 319 323 328 324 322 323 327 322 313 307 297 284 284 288 292 289 281 273 269 264 256 248 247 252 257 257 257 258 258 258
324 320 317 313 312 312 313 313 312 312 315 318 318 320 321 319 316 317 320 320 315 310 310 306 298 294 293 292 292 288 285 282 275 263 252 245 247 248 250 252 253 256 255
327 322 317 312 305 302 302 302 304 308 310 313 314 312 311 311 313 315 316 316 316 310 306 304 301 300 298 297 295 295 292 290 282 274 264 251 247 250 249 251 252 252 253
Height
1482 1481 1480 1478 1478 1477 1477 1477 1478 1478 1479 1480 1481 1482 1483 1483 1484 1485 1487 1488 1490 1491 1493 1495 1496 1499 1500 1502 1504 1505 1507 1508 1508 1508 1510 1511 1511 1511 1512 1512 1512 1513 1513
1481 1479 1477 1476 1475 1474 1474 1474 1475 1475 1476 1477 1478 1478 1479 1480 1481 1482 1483 1484 1486 1487 1489 1490 1492 1494 1496 1498 1499 1501 1502 1503 1504 1504 1505 1506 1507 1507 1508 1508 1508 1509 1509
1479 1477 1475 1473 1472 1472 1472 1472 1472 1472 1473 1474 1475 1475 1476 1477 1477 1478 1479 1481 1482 1483 1485 1486 1488 1489 1491 1493 1495 1497 1498 1499 1500 1500 1501 1502 1502 1503 1503 1504 1504 1505 1505
1477 1475 1473 1471 1470 1469 1469 1470 1470 1470 1470 1471 1471 1472 1473 1474 1474 1475 1476 1477 1478 1479 1481 1482 1484 1485 1487 1489 1491 1493 1494 1495 1496 1497 1497 1498 1498 1499 1499 1500 1500 1501 1501
1476 1474 1472 1470 1469 1467 1467 1467 1467 1467 1467 1468 1469 1470 1471 1471 1472 1472 1473 1474 1475 1476 1477 1479 1480 1482 1484 1485 1487 1488 1490 1491 1492 1492 1493 1494 1494 1494 1495 1495 1496 1496 1496
1475 1473 1471 1469 1467 1466 1464 1464 1464 1464 1465 1466 1466 1467 1468 1468 1469 1469 1470 1470 1471 1472 1474 1475 1476 1478 1479 1481 1483 1485 1486 1487 1488 1489 1489 1489 1490 1491 1491 1492 1492 1492 1492
1473 1471 1470 1468 1466 1464 1463 1462 1462 1462 1462 1463 1463 1464 1465 1466 1467 1467 1467 1467 1468 1469 1470 1471 1473 1474 1476 1477 1479 1480 1482 1483 1485 1486 1485 1486 1486 1487 1487 1488 1488 1488 1488
1472 1470 1468 1467 1465 1463 1461 1460 1460 1460 1460 1461 1461 1462 1462 1463 1464 1464 1464 1465 1465 1466 1467 1469 1470 1471 1473 1474 1475 1476 1478 1479 1481 1481 1482 1482 1483 1484 1484 1484 1484 1484 1484
1471 1469 1467 1466 1464 1462 1461 1460 1459 1459 1459 1459 1460 1460 1460 1461 1462 1462 1463 1462 1463 1463 1465 1466 1467 1468 1470 1471 1472 1473 1474 1475 1477 1478 1478 1479 1479 1480 1481 1481 1480 1480 1479
1470 1468 1467 1465 1463 1461 1460 1460 1459 1458 1458 1458 1458 1459 1459 1459 1460 1461 1461 1461 1460 1461 1462 1463 1464 1465 1466 1468 1469 1470 1470 1471 1473 1473 1474 1475 1475 1476 1476 1477 1476 1476 1475
1470 1468 1466 1465 1463 1461 1460 1459 1458 1457 1457 1457 1457 1458 1458 1458 1459 1459 1459 1459 1459 1459 1460 1461 1462 1463 1464 1465 1466 1467 1467 1468 1469 1470 1470 1471 1472 1472 1472 1473 1473 1472 1472
1469 1467 1465 1463 1462 1461 1460 1459 1458 1457 1456 1456 1456 1457 1457 1457 1457 1457 1458 1458 1458 1458 1458 1459 1459 1461 1461 1462 1463 1464 1464 1465 1466 1466 1467 1467 1467 1468 1468 1468 1468 1468 1468
1467 1466 1464 1463 1462 1461 1459 1458 1457 1457 1456 1456 1456 1456 1456 1456 1456 1456 1456 1456 1457 1456 1457 1457 1458 1458 1459 1459 1460 1461 1462 1462 1462 1463 1463 1463 1464 1464 1464 1464 1464 1464 1464
1466 1464 1463 1462 1461 1460 1459 1458 1457 1457 1456 1455 1455 1455 1455 1455 1455 1455 1455 1455 1455 1455 1455 1455 1456 1456 1457 1457 1458 1458 1459 1459 1459 1460 1460 1460 1460 1460 1460 1460 1460 1459 1459
1465 1463 1462 1461 1460 1459 1458 1458 1457 1456 1456 1456 1455 1455 1454 1454 1454 1454 1454 1454 1453 1453 1454 1454 1454 1454 1454 1455 1455 1455 1456 1456 1456 1457 1457 1456 1456 1457 1456 1456 1456 1456 1455
1463 1462 1461 1460 1459 1458 1457 1456 1456 1456 1455 1455 1454 1453 1453 1453 1452 1452 1452 1452 1452 1452 1452 1452 1452 1452 1452 1452 1452 1452 1453 1453 1454 1454 1454 1454 1453 1453 1453 1453 1452 1452 1451
1462 1461 1460 1459 1458 1457 1456 1455 1454 1454 1453 1453 1452 1451 1451 1450 1450 1450 1450 1450 1450 1450 1450 1449 1449 1450 1450 1450 1450 1450 1450 1451 1451 1451 1451 1450 1450 1450 1450 1449 1449 1448 1447
1460 1459 1458 1457 1456 1456 1455 1454 1453 1452 1451 1450 1450 1449 1449 1448 1448 1448 1448 1448 1447 1447 1447 1447 1447 1447 1447 1447 1447 1447 1448 1448 1448 1448 1447 1447 1447 1446 1446 1445 1445 1444 1443
1458 1457 1456 1455 1455 1454 1453 1452 1452 1451 1450 1449 1448 1448 1447 1447 1446 1446 1446 1445 1445 1445 1445 1445 1445 1445 1445 1445 1445 1445 1445 1444 1444 1444 1443 1443 1443 1442 1442 1441 1441 1440 1440
1456 1455 1454 1454 1453 1452 1451 1450 1450 1449 1448 1447 1446 1446 1445 1445 1444 1443 1443 1443 1443 1442 1442 1442 1442 1442 1442 1442 1441 1441 1441 1441 1441 1440 1439 1439 1438 1438 1437 1437 1436 1436 1435
1454 1453 1453 1452 1451 1450 1449 1448 1448 1447 1446 1445 1445 1444 1444 1443 1442 1441 1441 1441 1440 1440 1440 1440 1439 1439 1438 1438 1438 1437 1437 1437 1436 1436 1435 1435 1434 1434 1433 1433 1432 1432 1431
1452 1451 1450 1450 1448 1448 1447 1446 1446 1445 1444 1443 1443 1442 1442 1441 1440 1439 1439 1438 1438 1438 1437 1437 1436 1436 1435 1434 1434 1433 1433 1432 1432 1431 1431 1430 1430 1429 1429 1428 1428 1427 1427
1450 1449 1448 1447 1446 1446 1445 1444 1443 1443 1442 1441 1440 1440 1439 1439 1438 1437 1437 1436 1435 1435 1434 1434 1433 1432 1432 1431 1430 1430 1429 1428 1428 1427 1426 1426 1425 1425 1424 1424 1423 1423 1422
1448 1447 1446 1445 1444 1443 1442 1442 1441 1440 1440 1439 1438 1437 1437 1436 1436 1435 1434 1433 1433 1432 1431 1430 1430 1429 1428 1427 1426 1426 1425 1424 1423 1423 1422 1421 1421 1420 1420 1419 1418 1418 1417
1446 1445 1444 1443 1442 1441 1440 1439 1438 1438 1437 1436 1436 1435 1434 1434 1433 1432 1432 1431 1430 1429 1428 1427 1426 1425 1424 1423 1422 1421 1420 1420 1419 1418 1418 1417 1416 1415 1415 1414 1413 1413 1413
1444 1442 1441 1440 1439 1438 1437 1437 1436 1435 1435 1434 1433 1433 1432 1431 1430 1430 1429 1428 1427 1426 1425 1424 1423 1422 1420 1419 1418 1417 1416 1415 1414 1414 1413 1412 1411 1411 1410 1409 1409 1408 1408